Weather History for Hobbs, NM

Change the Weather History Date:

Friday, March 29, 2013

  Actual Average Record
Temperature  
Mean Temperature 65 °F -  
Max Temperature 82 °F 68 °F 86 °F (2002)
Min Temperature 48 °F 42 °F 26 °F (2003)
Growing Degree Days 15 (Base 50)    
Moisture  
Dew Point 40 °F    
Average Humidity 59    
Maximum Humidity 100    
Minimum Humidity 11    
Precipitation  
Precipitation 0.00 in - - ()
Sea Level Pressure  
Sea Level Pressure 30.07 in    
Wind  
Wind Speed 8 mph (South)    
Max Wind Speed 13 mph    
Max Gust Speed 53 mph    
Visibility 9 miles    
Events      
Averages and records for this station are not official NWS values.
T = Trace of Precipitation, MM = Missing Value Source: NWS Daily Summary

Daily Weather History Graph

Daily Weather History Graph

Search for Another Location

Airport:

Trip Planner

Search our weather history database for the weather conditions in past years. The results will help you decide how hot, cold, wet, or windy it might be!

Date:

Astronomy

Mar. 29, 2013 Rise Set
Actual Time 6:44 AM MDT 7:11 PM MDT
Civil Twilight 6:19 AM MDT 7:35 PM MDT
Nautical Twilight 5:50 AM MDT 8:04 PM MDT
Astronomical Twilight 5:21 AM MDT 8:34 PM MDT
Moon 10:02 PM MDT (3/29) 8:04 AM MDT (3/29)
Length of Visible Light 13h 16m
Length of Day
12h 26m
Waning Gibbous, 93% of the Moon is Illuminated
Mar 29
Waning Gibbous
Apr 2
Last Quarter
Apr 10
New
Apr 18
First Quarter
Apr 25
Full

Hourly Weather History & Observations

Time (MDT) Temp. Dew Point Humidity Pressure Visibility Wind Dir Wind Speed Gust Speed Precip Events Conditions
12:15 AM 57.2 °F 50.0 °F 77% 30.10 in 10.0 mi SSE 11.5 mph - N/A   Clear
12:35 AM 57.2 °F 50.0 °F 77% 30.09 in 10.0 mi SSE 11.5 mph - N/A   Clear
12:55 AM 55.4 °F 50.0 °F 82% 30.09 in 10.0 mi SSE 11.5 mph - N/A   Clear
1:15 AM 55.4 °F 50.0 °F 82% 30.09 in 10.0 mi SSE 10.4 mph - N/A   Clear
1:35 AM 55.4 °F 50.0 °F 82% 30.09 in 10.0 mi South 8.1 mph - N/A   Clear
1:55 AM 53.6 °F 50.0 °F 88% 30.10 in 9.0 mi South 4.6 mph - N/A   Clear
2:15 AM 53.6 °F 50.0 °F 88% 30.10 in 10.0 mi South 12.7 mph - N/A   Clear
2:35 AM 55.4 °F 50.0 °F 82% 30.08 in 10.0 mi South 11.5 mph - N/A   Clear
2:55 AM 55.4 °F 50.0 °F 82% 30.08 in 10.0 mi South 10.4 mph - N/A   Clear
3:15 AM 53.6 °F 50.0 °F 88% 30.08 in 10.0 mi South 12.7 mph - N/A   Clear
3:35 AM 53.6 °F 50.0 °F 88% 30.08 in 10.0 mi South 8.1 mph - N/A   Clear
3:55 AM 53.6 °F 50.0 °F 88% 30.08 in 10.0 mi Calm Calm - N/A   Clear
4:15 AM 51.8 °F 50.0 °F 94% 30.08 in 10.0 mi Calm Calm - N/A   Clear
4:35 AM 51.8 °F 50.0 °F 94% 30.08 in 10.0 mi Calm Calm - N/A   Partly Cloudy
4:55 AM 50.0 °F 50.0 °F 100% 30.08 in 9.0 mi Calm Calm - N/A   Clear
5:50 AM 50.0 °F 50.0 °F 100% 30.08 in 10.0 mi South 4.6 mph - N/A   Clear
6:50 AM 48.2 °F 48.2 °F 100% 30.10 in 6.0 mi Calm Calm - N/A   Clear
7:50 AM 51.8 °F 51.8 °F 100% 30.12 in 5.0 mi Calm Calm - N/A   Mostly Cloudy
8:27 AM 53.6 °F 53.6 °F 100% 30.13 in 5.0 mi SSE 8.1 mph - N/A   Overcast
8:50 AM 55.4 °F 53.6 °F 94% 30.13 in 5.0 mi South 11.5 mph - N/A   Overcast
9:19 AM 57.2 °F 53.6 °F 88% 30.12 in 6.0 mi South 9.2 mph - N/A   Mostly Cloudy
9:36 AM 59.0 °F 53.6 °F 82% 30.13 in 9.0 mi South 9.2 mph - N/A   Partly Cloudy
9:50 AM 59.0 °F 53.6 °F 82% 30.12 in 9.0 mi South 8.1 mph - N/A   Partly Cloudy
10:50 AM 62.6 °F 50.0 °F 63% 30.11 in 10.0 mi South 5.8 mph - N/A   Mostly Cloudy
11:50 AM 71.6 °F 46.4 °F 41% 30.11 in 10.0 mi SSW 8.1 mph - N/A   Clear
1:50 PM 80.6 °F 30.2 °F 16% 30.06 in 10.0 mi SW 5.8 mph - N/A   Clear
2:50 PM 80.6 °F 24.8 °F 13% 30.02 in 10.0 mi WSW 11.5 mph 16.1 mph N/A   Clear
3:50 PM 80.6 °F 23.0 °F 12% 30.01 in 10.0 mi SW 12.7 mph 17.3 mph N/A   Clear
4:50 PM 82.4 °F 23.0 °F 11% 30.00 in 10.0 mi SW 10.4 mph 18.4 mph N/A   Clear
6:15 PM 77.0 °F 23.0 °F 13% 30.01 in 10.0 mi WNW 12.7 mph 20.7 mph N/A   Partly Cloudy
6:35 PM 75.2 °F 23.0 °F 14% 30.03 in 10.0 mi WSW 8.1 mph - N/A   Clear
6:55 PM 75.2 °F 24.8 °F 15% 30.03 in 6.0 mi West 5.8 mph 52.9 mph N/A   Haze
7:15 PM 71.6 °F 24.8 °F 17% 30.02 in 10.0 mi Calm Calm - N/A   Clear
7:35 PM 69.8 °F 24.8 °F 18% 30.02 in 10.0 mi Calm Calm - N/A   Clear
7:55 PM 69.8 °F 24.8 °F 18% 30.02 in 10.0 mi Calm Calm - N/A   Clear
8:15 PM 66.2 °F 24.8 °F 21% 30.02 in 10.0 mi Calm Calm - N/A   Clear
8:35 PM 62.6 °F 23.0 °F 22% 30.03 in 10.0 mi Calm Calm - N/A   Clear
8:55 PM 59.0 °F 23.0 °F 25% 30.04 in 10.0 mi Calm Calm - N/A   Clear
9:15 PM 57.2 °F 23.0 °F 27% 30.04 in 10.0 mi Calm Calm - N/A   Clear
9:35 PM 60.8 °F 23.0 °F 23% 30.05 in 10.0 mi Calm Calm - N/A   Clear
9:55 PM 59.0 °F 23.0 °F 25% 30.05 in 10.0 mi Calm Calm - N/A   Clear
10:15 PM 59.0 °F 26.6 °F 29% 30.06 in 10.0 mi South 11.5 mph - N/A   Clear
10:35 PM 62.6 °F 41.0 °F 45% 30.07 in 10.0 mi South 11.5 mph - N/A   Clear
10:55 PM 59.0 °F 41.0 °F 51% 30.07 in 10.0 mi South 10.4 mph - N/A   Clear
11:15 PM 59.0 °F 44.6 °F 59% 30.07 in 10.0 mi South 9.2 mph - N/A   Clear
11:35 PM 57.2 °F 46.4 °F 67% 30.07 in 10.0 mi South 8.1 mph - N/A   Clear
11:55 PM 57.2 °F 46.4 °F 67% 30.07 in 10.0 mi South 6.9 mph - N/A   Clear